| time (UTC) | temp C | wind direction | speed KPH | gust KPH | rain 1hr cm | rain 24hr cm | rain mn cm | humidity % | barometer mb |
| 20260504110117 | 5 | 201 | 0.0 | 0.0 | 0.00 | 0.00 | 0.00 | 69 | 945.6 |
| 20260504100104 | 4 | 211 | 0.0 | 0.0 | 0.00 | 0.00 | 0.00 | 69 | 945.3 |
| 20260504081537 | 5 | 217 | 0.0 | 0.0 | 0.00 | 0.00 | 0.00 | 64 | 945.5 |
| 20260504050002 | 7 | 211 | 0.0 | 0.0 | 0.00 | 0.00 | 0.00 | 57 | 945.5 |
| 20260504044506 | 7 | 178 | 0.0 | 0.0 | 0.00 | 0.00 | 0.00 | 59 | 945.5 |
| 20260504043001 | 7 | 135 | 0.0 | 0.0 | 0.00 | 0.00 | 0.00 | 59 | 945.6 |
| 20260504041501 | 7 | 111 | 0.0 | 0.0 | 0.00 | 0.00 | 0.00 | 59 | 945.5 |
| 20260504040107 | 8 | 32 | 0.0 | 0.0 | 0.00 | 0.00 | 0.00 | 58 | 945.6 |
| 20260504034605 | 8 | 32 | 0.0 | 0.0 | 0.00 | 0.00 | 0.00 | 58 | 945.6 |
| 20260504033115 | 8 | 32 | 0.0 | 0.0 | 0.00 | 0.00 | 0.00 | 58 | 945.6 |
| 20260504031554 | 8 | 32 | 0.0 | 0.0 | 0.00 | 0.00 | 0.00 | 57 | 945.6 |
| 20260504030053 | 8 | 32 | 0.0 | 0.0 | 0.00 | 0.00 | 0.00 | 57 | 945.7 |
| 20260504024552 | 8 | 32 | 0.0 | 0.0 | 0.00 | 0.00 | 0.00 | 56 | 945.7 |
| 20260504023052 | 8 | 22 | 0.0 | 0.0 | 0.00 | 0.00 | 0.00 | 55 | 945.9 |
| 20260504021551 | 8 | 24 | 0.0 | 0.0 | 0.00 | 0.00 | 0.00 | 55 | 945.9 |
| 20260504020049 | 8 | 35 | 0.0 | 0.0 | 0.00 | 0.00 | 0.00 | 54 | 945.7 |
| 20260504014550 | 8 | 5 | 0.0 | 0.0 | 0.00 | 0.00 | 0.00 | 53 | 945.8 |
| 20260504013050 | 8 | 38 | 0.0 | 0.0 | 0.00 | 0.00 | 0.00 | 53 | 945.6 |
| 20260504011557 | 8 | 9 | 0.0 | 0.0 | 0.00 | 0.00 | 0.00 | 53 | 945.5 |
| 20260504010059 | 8 | 229 | 0.0 | 0.0 | 0.00 | 0.00 | 0.00 | 53 | 945.3 |
| 20260504004554 | 8 | 223 | 0.0 | 0.0 | 0.00 | 0.00 | 0.00 | 53 | 945.2 |
| 20260504003054 | 8 | 223 | 0.0 | 0.0 | 0.00 | 0.00 | 0.00 | 52 | 945.0 |
| 20260504001515 | 8 | 22 | 0.0 | 0.0 | 0.00 | 0.00 | 0.00 | 52 | 944.8 |
| 20260504000013 | 9 | 22 | 0.0 | 0.0 | 0.00 | 0.00 | 0.00 | 53 | 944.8 |
| 20260503234512 | 9 | 22 | 0.0 | 0.0 | 0.00 | 0.00 | 0.00 | 52 | 944.9 |
| 20260503233010 | 9 | 22 | 0.0 | 0.0 | 0.00 | 0.00 | 0.00 | 51 | 944.8 |
| 20260503231508 | 9 | 23 | 0.0 | 0.0 | 0.00 | 0.00 | 0.00 | 51 | 944.8 |
| 20260503230006 | 10 | 332 | 0.0 | 0.0 | 0.00 | 0.00 | 0.00 | 50 | 944.8 |
| 20260503224507 | 10 | 11 | 0.0 | 0.0 | 0.00 | 0.00 | 0.00 | 50 | 944.8 |
| 20260503223004 | 10 | 30 | 0.0 | 0.0 | 0.00 | 0.00 | 0.00 | 51 | 944.8 |
| 20260503221551 | 10 | 224 | 0.0 | 0.0 | 0.00 | 0.00 | 0.00 | 50 | 944.8 |
| 20260503220106 | 10 | 9 | 0.0 | 0.0 | 0.00 | 0.00 | 0.00 | 49 | 944.9 |
| 20260503214553 | 9 | 15 | 0.0 | 0.0 | 0.00 | 0.00 | 0.00 | 52 | 944.9 |
| 20260503213050 | 9 | 341 | 0.0 | 0.0 | 0.00 | 0.00 | 0.00 | 49 | 944.8 |
| 20260503211601 | 10 | 259 | 0.0 | 0.0 | 0.00 | 0.00 | 0.00 | 46 | 944.6 |
| 20260503210049 | 10 | 62 | 0.0 | 0.0 | 0.00 | 0.00 | 0.00 | 44 | 944.4 |
| 20260503204553 | 10 | 70 | 0.0 | 0.0 | 0.00 | 0.00 | 0.00 | 42 | 944.4 |
| 20260503203046 | 10 | 90 | 0.0 | 0.0 | 0.00 | 0.00 | 0.00 | 43 | 944.4 |
| 20260503201502 | 10 | 360 | 0.0 | 0.0 | 0.00 | 0.00 | 0.00 | 41 | 944.3 |
| 20260503200001 | 10 | 61 | 0.0 | 0.0 | 0.00 | 0.00 | 0.00 | 41 | 944.5 |
| 20260503194600 | 10 | 350 | 0.0 | 0.0 | 0.00 | 0.00 | 0.00 | 40 | 944.5 |
| 20260503193124 | 10 | 44 | 0.0 | 0.0 | 0.00 | 0.00 | 0.00 | 39 | 944.7 |
| 20260503191521 | 10 | 67 | 0.0 | 0.0 | 0.00 | 0.00 | 0.00 | 41 | 944.9 |
| 20260503190021 | 10 | 25 | 0.0 | 0.0 | 0.00 | 0.00 | 0.00 | 38 | 944.9 |
| 20260503184521 | 10 | 47 | 0.0 | 0.0 | 0.00 | 0.00 | 0.00 | 38 | 945.1 |
| 20260503183023 | 10 | 12 | 0.0 | 0.0 | 0.00 | 0.00 | 0.00 | 38 | 945.4 |
| 20260503181533 | 9 | 341 | 0.0 | 0.0 | 0.00 | 0.00 | 0.00 | 37 | 945.4 |
| 20260503180021 | 9 | 61 | 0.0 | 0.0 | 0.00 | 0.00 | 0.00 | 39 | 945.4 |
| 20260503174520 | 9 | 248 | 0.0 | 0.0 | 0.00 | 0.00 | 0.00 | 41 | 945.7 |
| 20260503173037 | 8 | 15 | 0.0 | 0.0 | 0.00 | 0.00 | 0.00 | 41 | 946.0 |
| 20260503171518 | 8 | 70 | 0.0 | 0.0 | 0.00 | 0.00 | 0.00 | 43 | 945.9 |